Weather History for KSGT - December, 2012

Change the Weather History Date:

Friday, December 7, 2012

  Actual Average Record
Temperature  
Mean Temperature 60 °F -  
Max Temperature 66 °F 52 °F 66 °F (2001)
Min Temperature 55 °F 38 °F 21 °F (2013)
Degree Days  
Heating Degree Days 4    
Growing Degree Days 10 (Base 50)    
Moisture  
Dew Point 54 °F    
Average Humidity 79    
Maximum Humidity 94    
Minimum Humidity 64    
Precipitation  
Precipitation 0.00 in - - ()
Sea Level Pressure  
Sea Level Pressure 29.90 in    
Wind  
Wind Speed 6 mph (South)    
Max Wind Speed 14 mph    
Max Gust Speed -    
Visibility 7 miles    
Events      
Averages and records for this station are not official NWS values.
T = Trace of Precipitation, MM = Missing Value Source: NWS Daily Summary

Daily Weather History Graph

Daily Weather History Graph

Search for Another Location

Airport or City:

Trip Planner

Search our weather history database for the weather conditions in past years. The results will help you decide how hot, cold, wet, or windy it might be!

Date:

Astronomy

Dec. 07, 2012 Rise Set
Actual Time 7:00 AM CST 4:55 PM CST
Civil Twilight 6:32 AM CST 5:23 PM CST
Nautical Twilight 6:01 AM CST 5:54 PM CST
Astronomical Twilight 5:30 AM CST 6:25 PM CST
Moon 12:33 AM CST (12/7) 12:40 PM CST (12/7)
Length of Visible Light 10h 50m
Length of Day
9h 55m
Last Quarter, 38% of the Moon is Illuminated
Dec 7
Last Quarter
Dec 13
New
Dec 19
First Quarter
Dec 28
Full
Jan 4
Last Quarter

Hourly Weather History & Observations

Time (CST) Temp. Dew Point Humidity Pressure Visibility Wind Dir Wind Speed Gust Speed Precip Events Conditions
12:15 AM 57.2 °F 55.4 °F 94% 29.93 in 1.8 mi ESE 5.8 mph - N/A   Overcast
12:55 AM 57.2 °F 55.4 °F 94% 29.93 in 2.5 mi SE 3.5 mph - N/A   Overcast
1:15 AM 57.2 °F 55.4 °F 94% 29.93 in 3.0 mi SSE 3.5 mph - N/A   Overcast
1:35 AM 57.2 °F 55.4 °F 94% 29.93 in 3.0 mi South 4.6 mph - N/A   Overcast
1:56 AM 59.0 °F 55.4 °F 88% 29.93 in 4.0 mi South 5.8 mph - N/A   Overcast
2:15 AM 57.2 °F 55.4 °F 94% 29.93 in 3.0 mi South 4.6 mph - N/A   Overcast
2:35 AM 57.2 °F 55.4 °F 94% 29.93 in 3.0 mi South 3.5 mph - N/A   Overcast
3:15 AM 57.2 °F 55.4 °F 94% 29.93 in 3.0 mi SSE 4.6 mph - N/A   Mostly Cloudy
3:35 AM 57.2 °F 53.6 °F 88% 29.92 in 2.5 mi South 4.6 mph - N/A   Scattered Clouds
3:55 AM 57.2 °F 53.6 °F 88% 29.93 in 0.2 mi South 4.6 mph - N/A   Overcast
4:35 AM 57.2 °F 53.6 °F 88% 29.92 in 1.2 mi SSW 5.8 mph - N/A   Overcast
4:55 AM 57.2 °F 53.6 °F 88% 29.93 in 3.0 mi SSW 5.8 mph - N/A   Overcast
5:35 AM 57.2 °F 53.6 °F 88% 29.93 in 3.0 mi South 4.6 mph - N/A   Overcast
6:15 AM 55.4 °F 51.8 °F 88% 29.94 in 0.2 mi SSW 8.1 mph - N/A   Overcast
6:35 AM 57.2 °F 53.6 °F 88% 29.94 in 2.5 mi South 6.9 mph - N/A   Overcast
7:15 AM 55.4 °F 51.8 °F 88% 29.95 in 3.0 mi SSW 4.6 mph - N/A   Overcast
7:35 AM 57.2 °F 53.6 °F 88% 29.95 in 3.0 mi South 5.8 mph - N/A   Overcast
8:35 AM 57.2 °F 53.6 °F 88% 29.95 in 3.0 mi South 5.8 mph - N/A   Overcast
9:15 AM 59.0 °F 55.4 °F 88% 29.95 in 5.0 mi SW 3.5 mph - N/A   Overcast
9:55 AM 62.6 °F 55.4 °F 77% 29.96 in 9.0 mi SW 6.9 mph - N/A   Overcast
10:15 AM 62.6 °F 55.4 °F 77% 29.95 in 10.0 mi SSW 8.1 mph - N/A   Scattered Clouds
10:55 AM 64.4 °F 55.4 °F 73% 29.94 in 10.0 mi SSW 10.4 mph - N/A   Partly Cloudy
11:15 AM 64.4 °F 55.4 °F 73% 29.93 in 10.0 mi SSW 8.1 mph - N/A   Partly Cloudy
11:35 AM 64.4 °F 55.4 °F 73% 29.93 in 10.0 mi SW 10.4 mph - N/A   Partly Cloudy
11:56 AM 64.4 °F 55.4 °F 73% 29.92 in 10.0 mi SSW 13.8 mph - N/A   Mostly Cloudy
12:15 PM 64.4 °F 55.4 °F 73% 29.91 in 10.0 mi SSW 12.7 mph - N/A   Overcast
12:35 PM 66.2 °F 53.6 °F 64% 29.90 in 10.0 mi SW 13.8 mph - N/A   Overcast
1:15 PM 64.4 °F 53.6 °F 68% 29.88 in 10.0 mi SSW 13.8 mph - N/A   Overcast
1:35 PM 64.4 °F 51.8 °F 64% 29.87 in 10.0 mi South 13.8 mph - N/A   Overcast
1:55 PM 64.4 °F 51.8 °F 64% 29.86 in 10.0 mi South 11.5 mph - N/A   Overcast
2:16 PM 64.4 °F 51.8 °F 64% 29.86 in 10.0 mi South 11.5 mph - N/A   Overcast
2:35 PM 64.4 °F 51.8 °F 64% 29.86 in 10.0 mi South 11.5 mph - N/A   Overcast
2:55 PM 64.4 °F 51.8 °F 64% 29.86 in 10.0 mi South 10.4 mph - N/A   Overcast
3:15 PM 64.4 °F 53.6 °F 68% 29.86 in 10.0 mi South 9.2 mph - N/A   Overcast
3:35 PM 64.4 °F 53.6 °F 68% 29.86 in 10.0 mi South 9.2 mph - N/A   Overcast
3:55 PM 64.4 °F 53.6 °F 68% 29.86 in 10.0 mi South 9.2 mph - N/A   Overcast
4:15 PM 62.6 °F 53.6 °F 72% 29.86 in 10.0 mi South 8.1 mph - N/A   Overcast
4:55 PM 62.6 °F 53.6 °F 72% 29.87 in 10.0 mi SSE 3.5 mph - N/A   Overcast
5:15 PM 62.6 °F 53.6 °F 72% 29.87 in 10.0 mi SE 4.6 mph - N/A   Overcast
5:35 PM 62.6 °F 53.6 °F 72% 29.87 in 10.0 mi SSE 3.5 mph - N/A   Overcast
5:56 PM 62.6 °F 55.4 °F 77% 29.88 in 10.0 mi Calm Calm - N/A   Overcast
6:15 PM 62.6 °F 55.4 °F 77% 29.88 in 10.0 mi Calm Calm - N/A   Overcast
6:35 PM 62.6 °F 55.4 °F 77% 29.88 in 10.0 mi Calm Calm - N/A   Overcast
7:15 PM 62.6 °F 55.4 °F 77% 29.89 in 10.0 mi Calm Calm - N/A   Overcast
7:35 PM 62.6 °F 55.4 °F 77% 29.89 in 10.0 mi SSE 4.6 mph - N/A   Overcast
7:55 PM 62.6 °F 55.4 °F 77% 29.90 in 10.0 mi SE 4.6 mph - N/A   Overcast
8:16 PM 62.6 °F 55.4 °F 77% 29.90 in 10.0 mi Calm Calm - N/A   Overcast
8:35 PM 60.8 °F 55.4 °F 82% 29.89 in 9.0 mi SE 6.9 mph - N/A   Overcast
8:55 PM 60.8 °F 55.4 °F 82% 29.89 in 10.0 mi SE 4.6 mph - N/A   Overcast
9:16 PM 60.8 °F 55.4 °F 82% 29.89 in 9.0 mi SE 6.9 mph - N/A   Overcast
9:55 PM 60.8 °F 55.4 °F 82% 29.89 in 10.0 mi SE 6.9 mph - N/A   Overcast
10:16 PM 60.8 °F 55.4 °F 82% 29.89 in 10.0 mi SSE 8.1 mph - N/A   Overcast
10:35 PM 62.6 °F 55.4 °F 77% 29.89 in 10.0 mi SSE 8.1 mph - N/A   Overcast
10:55 PM 62.6 °F 55.4 °F 77% 29.89 in 10.0 mi South 10.4 mph - N/A   Overcast
11:35 PM 62.6 °F 55.4 °F 77% 29.89 in 10.0 mi South 9.2 mph - N/A   Overcast
11:55 PM 62.6 °F 55.4 °F 77% 29.89 in 10.0 mi South 9.2 mph - N/A   Overcast